Regional Weather Roundup
Issued by NWS

Home | Current Version | Previous Version | Graphics & Text | Print | Product List | Glossary On
Versions: 1 2 3 4 5 6 7 8 9 10 11 12 13 14 15 16 17 18 19 20 21 22 23 24 25 26 27 28 29 30 31 32 33 34 35 36 37 38 39 40 41 42 43 44 45 46 47 48 49 50
000
ASUS43 KLSX 280459
RWRMO

WEATHER SUMMARY FOR MISSOURI
NATIONAL WEATHER SERVICE SPRINGFIELD MO
1200 AM CDT MON JUL 28 2014

NOTE: "FAIR" INDICATES FEW OR NO CLOUDS BELOW 12,000 FEET WITH NO
       SIGNIFICANT WEATHER AND/OR OBSTRUCTIONS TO VISIBILITY.
       CURRENT SKY AND/OR WEATHER CONDITIONS ARE NOT AVAILABLE FOR
       CHILLICOTHE AND FARMINGTON.

MOZ001>031-035>038-043-044-053-054-280600-
...NORTHERN AND WESTERN MISSOURI...

CITY           SKY/WX    TMP DP  RH WIND       PRES   REMARKS
KANSAS CTY INT CLEAR     65  58  78 N8        30.14R
KANSAS C DTWN  CLEAR     73  58  59 N7        30.12R
LEE`S SUMMIT   CLEAR     72  58  61 N10       30.13R
ST JOSEPH      CLEAR     63  59  87 N6        30.14S
CHILLICOTHE      N/A     69  56  62 VRB3      30.12R
KIRKSVILLE     CLEAR     65  57  75 NW7       30.09R

$$
MOZ066>068-077>081-088>096-101>105-280600-
...SOUTHWEST MISSOURI...

CITY           SKY/WX    TMP DP  RH WIND       PRES   REMARKS
SPRINGFIELD    CLEAR     68  57  68 NW7       30.10R
JOPLIN         CLEAR     69  62  78 N3        30.11R

$$
MOZ032>034-039>042-045>050-055>058-069>072-280600-
...CENTRAL MISSOURI...

CITY           SKY/WX    TMP DP  RH WIND       PRES   REMARKS
COLUMBIA       CLEAR     70  57  63 N13       30.06R
JEFFERSON CITY CLEAR     73  57  57 NW5       30.05R
ROLLA          CLEAR     70  57  63 N8        30.04R
SEDALIA        CLEAR     68  59  73 NW8       30.10R
OSAGE BEACH      N/A     72  57  60 N5        30.07R

$$
MOZ051-052-059>065-280600-
...EAST CENTRAL MISSOURI...

CITY           SKY/WX    TMP DP  RH WIND       PRES   REMARKS
ST LOUIS INTL  CLEAR     72  59  63 NW7       30.00R
SPIRIT OF STL  CLEAR     72  58  61 NW8       30.00R
ST CHARLES     CLEAR     71  57  61 NW10      29.99R

$$
MOZ072>076-082>087-097>100-106>115-280600-
...SOUTH CENTRAL AND SOUTHEAST MISSOURI...

CITY           SKY/WX    TMP DP  RH WIND       PRES   REMARKS
CAPE GIRARDEAU CLEAR     74  61  63 N7        29.97R
FARMINGTON     CLEAR     73  57  56 N6        30.04R
POPLAR BLUFF   CLEAR     74  60  61 NW6       29.96R
WEST PLAINS    CLEAR     73  57  57 N8        30.06R

$$


USA.gov is the U.S. government's official web portal to all federal, state and local government web resources and services.